• Em Portugal
  • Lista de países
  • Para 7 dias
  • Temperatura da água
  • Mapas de satélite
  • Mapa do tempo
  • Widgets de tempo
  • user-avatar
    Iniciar Sessão

    Previsão horária em Kapan

    Hoje, 23 Novembro, Quinta-feira

    Tempo Temperatura Precipitação Vento Pressão Humidade
    00:00 +5°C° 0,1 mm 2 m/s 679 mmHg 75%
    01:00 +4°C° 0,1 mm 2 m/s 679 mmHg 75%
    02:00 +5°C° 0,1 mm 1 m/s 679 mmHg 75%
    03:00 +5°C° 0,1 mm 1 m/s 679 mmHg 75%
    04:00 +4°C° 0,1 mm 1 m/s 680 mmHg 74%
    05:00 +4°C° 0,1 mm 1 m/s 680 mmHg 74%
    06:00 +4°C° 0,1 mm 1 m/s 680 mmHg 73%
    07:00 +5°C° 0 mm 1 m/s 680 mmHg 69%
    08:00 +4°C° 0 mm 2 m/s 681 mmHg 65%
    09:00 +5°C° 0 mm 2 m/s 680 mmHg 59%
    10:00 +5°C° 0 mm 3 m/s 680 mmHg 53%
    11:00 +5°C° 0 mm 3 m/s 680 mmHg 47%
    12:00 +7°C° 0 mm 3 m/s 680 mmHg 41%
    13:00 +7°C° 0 mm 3 m/s 680 mmHg 41%
    14:00 +7°C° 0 mm 3 m/s 680 mmHg 41%
    15:00 +7°C° 0 mm 2 m/s 680 mmHg 41%
    16:00 +6°C° 0 mm 2 m/s 680 mmHg 48%
    17:00 +5°C° 0 mm 2 m/s 681 mmHg 55%
    18:00 +4°C° 0 mm 1 m/s 681 mmHg 62%
    19:00 +4°C° 0 mm 1 m/s 681 mmHg 64%
    20:00 +4°C° 0 mm 1 m/s 681 mmHg 66%
    21:00 +4°C° 0 mm 1 m/s 682 mmHg 67%
    22:00 +4°C° 0 mm 1 m/s 682 mmHg 68%
    23:00 +3°C° 0 mm 1 m/s 682 mmHg 68%

    Amanhã, 24 Novembro, Sexta-feira

    Tempo Temperatura Precipitação Vento Pressão Humidade
    00:00 +3°C° 0 mm 1 m/s 682 mmHg 69%
    01:00 +3°C° 0 mm 1 m/s 682 mmHg 70%
    02:00 +2°C° 0 mm 1 m/s 682 mmHg 71%
    03:00 +2°C° 0 mm 1 m/s 682 mmHg 72%
    04:00 +2°C° 0 mm 1 m/s 682 mmHg 74%
    05:00 +2°C° 0 mm 1 m/s 682 mmHg 76%
    06:00 +1°C° 0 mm 1 m/s 683 mmHg 77%
    07:00 +2°C° 0,1 mm 1 m/s 683 mmHg 75%
    08:00 +2°C° 0,1 mm 1 m/s 683 mmHg 73%
    09:00 +2°C° 0,1 mm 2 m/s 683 mmHg 70%
    10:00 +2°C° 0,4 mm 2 m/s 683 mmHg 71%
    11:00 +2°C° 0,4 mm 2 m/s 683 mmHg 71%
    12:00 +2°C° 0,4 mm 2 m/s 683 mmHg 72%
    13:00 +2°C° 0,3 mm 2 m/s 683 mmHg 71%
    14:00 +1°C° 0,3 mm 2 m/s 683 mmHg 70%
    15:00 +1°C° 0,3 mm 2 m/s 683 mmHg 70%
    16:00 +2°C° 0 mm 1 m/s 684 mmHg 72%
    17:00 +1°C° 0 mm 1 m/s 684 mmHg 74%
    18:00 0°C° 0 mm 1 m/s 684 mmHg 76%
    19:00 0°C° 0 mm 1 m/s 685 mmHg 73%
    20:00 0°C° 0 mm 1 m/s 685 mmHg 70%
    21:00 -2°C° 0 mm 2 m/s 685 mmHg 66%
    22:00 -2°C° 0 mm 2 m/s 685 mmHg 64%
    23:00 -2°C° 0 mm 2 m/s 685 mmHg 62%

    Depois de amanhã, 25 Novembro, Sábado

    Tempo Temperatura Precipitação Vento Pressão Humidade
    00:00 -2°C° 0 mm 2 m/s 685 mmHg 61%
    01:00 -2°C° 0 mm 2 m/s 686 mmHg 62%
    02:00 -2°C° 0 mm 2 m/s 686 mmHg 62%
    03:00 -2°C° 0 mm 3 m/s 686 mmHg 63%
    04:00 -2°C° 0 mm 3 m/s 686 mmHg 64%
    05:00 -4°C° 0 mm 3 m/s 687 mmHg 65%
    06:00 -4°C° 0 mm 3 m/s 687 mmHg 66%
    07:00 -2°C° 0 mm 2 m/s 688 mmHg 62%
    08:00 +1°C° 0 mm 2 m/s 688 mmHg 58%
    09:00 +2°C° 0 mm 2 m/s 689 mmHg 53%
    10:00 +3°C° 0 mm 2 m/s 689 mmHg 49%
    11:00 +3°C° 0 mm 2 m/s 689 mmHg 45%
    12:00 +4°C° 0 mm 2 m/s 690 mmHg 40%
    13:00 +4°C° 0 mm 2 m/s 690 mmHg 40%
    14:00 +4°C° 0 mm 2 m/s 690 mmHg 41%
    15:00 +4°C° 0 mm 2 m/s 690 mmHg 41%
    16:00 +2°C° 0 mm 2 m/s 690 mmHg 46%
    17:00 +2°C° 0 mm 1 m/s 690 mmHg 50%
    18:00 0°C° 0 mm 1 m/s 691 mmHg 55%
    19:00 0°C° 0 mm 1 m/s 691 mmHg 53%
    20:00 0°C° 0 mm 1 m/s 691 mmHg 52%
    21:00 -1°C° 0 mm 1 m/s 691 mmHg 50%
    22:00 0°C° 0 mm 1 m/s 691 mmHg 48%
    23:00 0°C° 0 mm 1 m/s 691 mmHg 47%

    26 Novembro, Domingo

    Tempo Temperatura Precipitação Vento Pressão Humidade
    00:00 -2°C° 0 mm 2 m/s 691 mmHg 45%
    01:00 -2°C° 0 mm 2 m/s 691 mmHg 44%
    02:00 -2°C° 0 mm 2 m/s 691 mmHg 44%
    03:00 -2°C° 0 mm 2 m/s 691 mmHg 43%
    04:00 -1°C° 0 mm 1 m/s 691 mmHg 43%
    05:00 -1°C° 0 mm 1 m/s 691 mmHg 44%
    06:00 -1°C° 0 mm 1 m/s 690 mmHg 44%
    07:00 +1°C° 0 mm 1 m/s 691 mmHg 42%
    08:00 +2°C° 0 mm 1 m/s 691 mmHg 40%
    09:00 +4°C° 0 mm 1 m/s 691 mmHg 38%
    10:00 +5°C° 0 mm 1 m/s 691 mmHg 36%
    11:00 +6°C° 0 mm 1 m/s 690 mmHg 35%
    12:00 +6°C° 0 mm 2 m/s 690 mmHg 33%
    13:00 +6°C° 0 mm 2 m/s 689 mmHg 35%
    14:00 +6°C° 0 mm 2 m/s 689 mmHg 37%
    15:00 +6°C° 0 mm 2 m/s 688 mmHg 39%
    16:00 +5°C° 0 mm 1 m/s 688 mmHg 42%
    17:00 +4°C° 0 mm 1 m/s 688 mmHg 45%
    18:00 +3°C° 0 mm 1 m/s 688 mmHg 49%
    19:00 +3°C° 0 mm 1 m/s 688 mmHg 46%
    20:00 +3°C° 0 mm 1 m/s 688 mmHg 44%
    21:00 +3°C° 0 mm 1 m/s 688 mmHg 41%
    22:00 +2°C° 0 mm 2 m/s 688 mmHg 40%
    23:00 +2°C° 0 mm 2 m/s 688 mmHg 39%

    27 Novembro, Segunda-feira

    Tempo Temperatura Precipitação Vento Pressão Humidade
    00:00 +2°C° 0 mm 2 m/s 687 mmHg 37%
    01:00 +2°C° 0 mm 2 m/s 687 mmHg 37%
    02:00 +1°C° 0 mm 2 m/s 687 mmHg 37%
    03:00 +1°C° 0 mm 2 m/s 687 mmHg 37%
    04:00 +1°C° 0 mm 2 m/s 687 mmHg 37%
    05:00 +1°C° 0 mm 2 m/s 687 mmHg 37%
    06:00 +1°C° 0 mm 2 m/s 687 mmHg 38%
    07:00 +3°C° 0 mm 2 m/s 687 mmHg 36%
    08:00 +5°C° 0 mm 1 m/s 687 mmHg 34%
    09:00 +7°C° 0 mm 1 m/s 688 mmHg 33%
    10:00 +8°C° 0 mm 1 m/s 687 mmHg 32%
    11:00 +9°C° 0 mm 1 m/s 687 mmHg 30%
    12:00 +9°C° 0 mm 2 m/s 687 mmHg 29%
    13:00 +9°C° 0 mm 2 m/s 686 mmHg 30%
    14:00 +10°C° 0 mm 1 m/s 686 mmHg 32%
    15:00 +10°C° 0 mm 1 m/s 686 mmHg 33%
    16:00 +8°C° 0 mm 1 m/s 686 mmHg 36%
    17:00 +7°C° 0 mm 1 m/s 685 mmHg 40%
    18:00 +5°C° 0 mm 1 m/s 685 mmHg 44%
    19:00 +5°C° 0 mm 1 m/s 685 mmHg 43%
    20:00 +5°C° 0 mm 1 m/s 685 mmHg 43%
    21:00 +4°C° 0 mm 2 m/s 685 mmHg 42%
    22:00 +4°C° 0 mm 2 m/s 685 mmHg 43%
    23:00 +4°C° 0 mm 2 m/s 685 mmHg 43%

    28 Novembro, Terça-feira

    Tempo Temperatura Precipitação Vento Pressão Humidade
    00:00 +4°C° 0 mm 2 m/s 685 mmHg 43%
    01:00 +3°C° 0 mm 2 m/s 685 mmHg 44%
    02:00 +3°C° 0 mm 2 m/s 685 mmHg 45%
    03:00 +3°C° 0 mm 2 m/s 684 mmHg 46%
    04:00 +3°C° 0 mm 2 m/s 684 mmHg 47%
    05:00 +3°C° 0 mm 2 m/s 684 mmHg 48%
    06:00 +3°C° 0 mm 2 m/s 684 mmHg 49%
    07:00 +4°C° 0 mm 2 m/s 685 mmHg 47%
    08:00 +6°C° 0 mm 2 m/s 685 mmHg 44%
    09:00 +7°C° 0 mm 2 m/s 686 mmHg 42%
    10:00 +8°C° 0 mm 2 m/s 685 mmHg 40%
    11:00 +9°C° 0 mm 2 m/s 685 mmHg 38%
    12:00 +10°C° 0 mm 2 m/s 684 mmHg 37%
    13:00 +10°C° 0 mm 2 m/s 684 mmHg 38%
    14:00 +10°C° 0 mm 2 m/s 684 mmHg 39%
    15:00 +10°C° 0 mm 2 m/s 684 mmHg 40%
    16:00 +8°C° 0 mm 2 m/s 684 mmHg 44%
    17:00 +7°C° 0 mm 2 m/s 684 mmHg 47%
    18:00 +6°C° 0 mm 1 m/s 684 mmHg 51%
    19:00 +5°C° 0 mm 2 m/s 684 mmHg 52%
    20:00 +5°C° 0 mm 2 m/s 684 mmHg 53%
    21:00 +5°C° 0 mm 2 m/s 685 mmHg 54%
    22:00 +5°C° 0 mm 2 m/s 685 mmHg 54%
    23:00 +4°C° 0 mm 2 m/s 685 mmHg 55%
    Mostrar mais